www.pogodaiklimat.ru

Погода и климат >> Архив погоды >> Беларусь >> Лида


АРХИВ ПОГОДЫ в Лиде

Время (UTC), дата Ветер
(напр.,м/с)
 
Видим.   Явления Облачность Т
(С)
Тd
(С)
f
(%)
Тe
(С)
Тes
(С)
Комфортность P
(гПа)
Po
(гПа)
Тmin
(С)
Tmax
(С)
R
(мм)
R24
(мм)
S
(см)
15 18.08 Ю 2 35 км 4/3 600 м
[Sc diur, vesp Ci fib]
+26.4 +13.3 44 +28 +30 жарко 1011.7 994.0
18 18.08 штиль 0 30 км 3/0
[Ac trans Ci fib]
+19.9 +16.0 78 +22 +22 комфорт 1012.2 994.1 +27.1
21 18.08 ЮВ 1 30 км 1/0
[Ac trans]
+18.0 +13.6 75 +19 +19 тепло 1012.7 994.4
00 19.08 ЮВ 2 35 км 6/0
[Ac trans]
+17.2 +13.0 76 +18 +18 тепло 1012.6 994.3
03 19.08 Ю 2 35 км 8/0
[Ac trans]
+17.1 +13.4 79 +17 +17 тепло 1012.9 994.5
06 19.08 Ю 3 35 км 9/0
[Ac trans Ci fib]
+20.2 +15.4 74 +23 +25 комфорт 1013.3 995.2 +16.7
09 19.08 Ю 4 35 км 8/0
[Ac trans Ci fib]
+26.4 +17.3 57 +30 +35 душно 1013.2 995.5
12 19.08 ЮЗ 5-10
{10}
35 км 5/3 1000 м
[Cu hum Ci fib]
+29.6 +17.6 48 +34 +37 очень
душно
1013.5 996.0
15 19.08 ЮЗ 4
{11}
35 км 5/3 1000 м
[Cu med, cong Ac trans]
+30.0 +16.5 44 +33 +34 душно 1013.9 996.5
18 19.08 С 1 35 км 8/6 600 м
[Cb calv Ac trans]
+25.5 +17.4 61 +30 +30 душно 1015.4 997.6 +31.0
21 19.08 С 2 30 км гроза, ливневой дождь 8/5 600 м
[Cb cap Ac trans]
+20.4 +17.2 82 +24 +24 комфорт 1017.7 999.5
00 20.08 В 2 9000 м ливневой дождь {гроза} 10/6 300 м
[Cb calv Ac As]
+17.7 +17.5 99 +18 +18 тепло 1019.4 1001.0
03 20.08 СЗ 1 12 км {ливн. осадки} 9/0
[Ac As]
+17.4 +17.3 99 +18 +18 тепло 1020.1 1001.6
06 20.08 штиль 0 24 км {ливн. осадки} 10/8 240 м
[St Ac As]
+18.0 +17.8 99 +18 +18 тепло 1021.4 1003.0 +17.3 13
09 20.08 штиль 0 35 км 8/6 600 м
[Sc Ac trans Ci fib]
+21.0 +16.9 77 +24 +29 комфорт 1022.0 1003.8
12 20.08 СВ 1 30 км 8/5 600 м
[Cu med, cong Ac trans Ci fib]
+22.4 +17.1 72 +27 +31 душно 1022.4 1004.3
15 20.08 штиль 0 35 км 8/3 600 м
[Sc Ac trans]
+23.7 +16.6 64 +27 +29 жарко 1022.4 1004.3
18 20.08 штиль 0 30 км 9/0
[Ac trans Ci fib]
+19.6 +18.1 91 +22 +22 комфорт 1022.8 1004.4 +24.9
21 20.08 В 1 35 км 8/0
[Ac trans]
+18.4 +17.5 94 +20 +20 тепло 1023.1 1004.7
00 21.08 штиль 0 30 км 9/0
[Ac trans]
+18.5 +17.5 94 +19 +19 тепло 1022.5 1004.1
03 21.08 СВ 2 29 км 9/0
[Ac trans]
+18.3 +17.5 95 +19 +19 тепло 1021.0 1002.6
06 21.08 В 3 17 км слаб. ливневой дождь 10/4 600 м
[Cb calv Ac As]
+18.4 +18.1 98 +19 +20 тепло 1019.0 1000.6 +17.6 0.8
09 21.08 ЮВ 1 23 км {гроза, ливн. осадки} 9/5 600 м
[Sc Ac trans]
+20.3 +19.9 98 +25 +29 комфорт 1017.5 999.3
12 21.08 З 6
{11}
18 км {гроза, ливн. осадки} 10/8 240 м
[St Ac As]
+18.8 +17.5 92 +20 +20 по сезону 1018.8 1000.5
15 21.08 СЗ 5
{11}
35 км 10/8 330 м
[St Ac As]
+15.3 +13.3 88 +14 +14 холодно 1022.4 1003.7
18 21.08 СЗ 4
{11}
29 км 8/8 720 м
[Sc]
+14.4 +11.4 82 +13 +13 прохладно 1024.9 1006.1 +22.5 8
21 21.08 СЗ 1 35 км ясно +12.4 +11.4 94 +12 +12 прохладно 1026.7 1007.8
00 22.08 СЗ 1 13 км ясно +11.8 +11.3 97 +12 +12 по сезону 1027.6 1008.6
03 22.08 СЗ 2 800 м туман ?/? +11.9 +11.9 100 +11 +11 по сезону 1028.5 1009.5
06 22.08 С 1 13 км {туман} 10/8 240 м
[St Ac As]
+13.2 +12.5 96 +13 +13 по сезону 1029.7 1010.8 +11.5
09 22.08 СЗ 1 35 км 3/3 1000 м
[Cu hum]
+17.6 +11.7 68 +19 +27 тепло 1030.3 1011.7
12 22.08 СВ 1 35 км 6/3 1000 м
[Cu hum Ci fib]
+20.9 +10.9 53 +24 +32 комфорт 1029.6 1011.2
15 22.08 С 2 30 км 8/3 1000 м
[Cu med, cong Ci fib]
+21.0 +10.8 52 +24 +25 комфорт 1029.0 1010.6
18 22.08 штиль 0 35 км 4/3 1000 м
[Sc diur, vesp Ci fib]
+15.4 +13.2 87 +15 +15 по сезону 1029.3 1010.5 +21.9
21 22.08 штиль 0 25 км 1/0
[Ac trans]
+12.1 +11.2 94 +11 +11 прохладно 1030.2 1011.2
00 23.08 штиль 0 14 км 1/0
[Ac trans]
+10.8 +10.6 99 +10 +10 по сезону 1030.7 1011.6
03 23.08 штиль 0 19 км 3/0
[Ac trans]
+9.5 +9.4 99 +9 +9 прохладно 1030.8 1011.6
06 23.08 штиль 0 29 км 4/0
[Ac trans]
+15.8 +12.8 82 +16 +19 тепло 1031.1 1012.3 +9.4
09 23.08 Ю 1 35 км 8/6 600 м
[Cu med, cong Ac trans]
+20.1 +10.4 54 +23 +26 комфорт 1030.8 1012.3
12 23.08 штиль 0 35 км 8/5 1000 м
[Cu hum Ac trans]
+21.1 +9.3 47 +22 +27 комфорт 1029.7 1011.3
15 23.08 СВ 1 35 км 3/3 1000 м
[Cu hum]
+22.1 +9.6 45 +24 +26 комфорт 1028.5 1010.2
18 23.08 штиль 0 35 км 3/3 1000 м
[Sc diur, vesp]
+15.3 +11.6 79 +15 +15 по сезону 1028.5 1009.7 +23.4
21 23.08 штиль 0 30 км ясно +12.5 +11.1 91 +12 +12 по сезону 1028.9 1009.9
00 24.08 штиль 0 21 км 3/0
[Ci fib]
+10.9 +10.5 97 +10 +10 по сезону 1028.7 1009.6
03 24.08 штиль 0 18 км 3/0
[Ci fib]
+9.2 +9.1 99 +8 +8 прохладно 1028.7 1009.5
06 24.08 штиль 0 35 км 3/0
[Ci fib]
+15.8 +11.7 77 +16 +20 тепло 1028.5 1009.8 +9.0
09 24.08 З 2 35 км 4/0
[Ci fib]
+21.9 +11.0 50 +24 +33 комфорт 1028.1 1009.8
12 24.08 СЗ 2 35 км 3/0
[Ci fib]
+23.9 +9.3 39 +25 +34 комфорт 1026.9 1008.8
15 24.08 СЗ 2 35 км 3/0
[Ci fib]
+25.0 +11.4 43 +26 +29 жарко 1026.0 1008.0
18 24.08 штиль 0 35 км 3/0
[Ci fib]
+17.8 +14.7 82 +18 +18 тепло 1026.5 1007.9 +26.6
21 24.08 штиль 0 22 км 5/0
[Ci fib]
+15.2 +12.7 85 +15 +15 по сезону 1026.8 1008.1
00 25.08 штиль 0 18 км ясно +13.1 +12.4 96 +13 +13 по сезону 1027.4 1008.5
03 25.08 штиль 0 10 км 1/0
[Ac trans]
+11.9 +11.7 99 +11 +11 по сезону 1027.9 1008.9
06 25.08 штиль 0 21 км ясно +17.8 +13.9 78 +18 +22 тепло 1028.1 1009.5 +11.8
09 25.08 СВ 1 22 км ясно +24.1 +14.2 54 +27 +39 жарко 1027.7 1009.6
12 25.08 В 1 30 км 4/4 1000 м
[Cu hum]
+26.4 +13.2 44 +28 +35 жарко 1026.9 1009.0

 

Местоположение метеостанции Лида (Гродненская область, Беларусь): широта 53.90 долгота 25.32 высота над уровнем моря 157 м.

В архиве по умолчанию представлена погода в Лиде за последнюю неделю. Архивные данные за месяц целиком и за предыдущие месяцы, начиная с января 2011 года, Вы можете получить, выбрав интересующий диапазон дат из раскрывающегося списка и нажав кнопку "Ввод!".


*Определитесь, кто Вы:
робот инопланетянин человек

Внимание! Время в таблицах - всемирное. Для получения местного времени необходимо прибавить поправку, которая равна 3 ч.

Смотрите также архив погоды в соседних городах и на ближайших метеорологических станциях:

Погода в Новогрудке (Гродненская область, Беларусь) (48 км)
Погода в Варена (Литва) (64 км)
Погода в Ошмянах (Гродненская область, Беларусь) (71 км)
Погода в Вильнюсе (Литва) (81 км)
Погода в Воложине (Минская область, Беларусь) (81 км)
Погода в Гродно (Гродненская область, Беларусь) (91 км)
Погода в Барановичах (Брестская область, Беларусь) (96 км)
Погода в Волковыске (Гродненская область, Беларусь) (99 км)
Погода в Алитусе (Литва) (100 км)
Погода в Столбцах (Минская область, Беларусь) (104 км)

Пояснения к столбцам:

Ветер - указаны скорость ветра в м/с - средняя за 10 мин, порывы в срок и между сроками (в фигурных скобках) и направление, откуда дует ветер: С - северный, СВ - северо-восточный, В - восточный, ЮВ - юго-восточный, Ю - южный, ЮЗ - юго-западный, З - западный, СЗ - северо-западный.
Видимость - горизонтальная дальность видимости в метрах или километрах. При видимости от 1 до 10 км при отсутствии осадков обычно наблюдается дымка, при ухудшении видимости до 1 км и менее - туман. В сухую погоду видимость может ухудшаться дымом, пылью или мглою.
Явления - указаны атмосферные явления, наблюдавшиеся в срок или в последний час перед сроком; фигурными скобками обозначены явления, наблюдавшиеся между сроками (за 1-3 часа до срока); квадратными скобками обозначены град или гололедные отложения с указанием их диаметра в мм.
Облачность - указаны через наклонную черту общая и нижняя облачность в баллах и высота нижней границы облаков в метрах; квадратными скобками обозначены формы облаков: Ci - перистые, Cs - перисто-слоистые, Cc - перисто-кучевые, Ac - высококучевые, As - высокослоистые, Sc - слоисто-кучевые, Ns - слоисто-дождевые, Cu - кучевые, Cb - кучево-дождевые. Подробнее классификацию облаков см. в Атласе облаков (PDF).
T - Температура воздуха - температура, измеренная на высоте 2 м над землей.
Td - Температура точки росы - температура, при понижении до которой содержащийся в воздухе водяной пар достигнет насыщения.
f - Относительная влажность воздуха - влажноcть воздуха, измеренная на высоте 2 м над землей.
Te - Эффективная температура - температура, которую ощущает одетый по сезону человек в тени. Характеристика душности погоды. При расчете учитывается влияние влажности воздуха и скорости ветра на теплоощущения человека.
Tes - Эффективная температура на солнце - температура, которую ощущает человек, с поправкой на солнечный нагрев. Характеристика знойности погоды. Зависит от высоты солнца над горизонтом, облачности и скорости ветра. Ночью, в пасмурную погоду, а также при ветре 12 м/с и более поправка равна нулю.
P - Атмосферное давление - приведенное к уровню моря атмосферное давление.
Po - Атмосферное давление - измеренное на уровне метеостанции атмосферное давление.
Tmin - Минимальная температура - минимум температуры воздуха на высоте 2 м над землей.
Tmax - Максимальная температура - максимум температуры воздуха на высоте 2 м над землей.
R - Количество осадков - Количество выпавших осадков за период времени, мм. При наведении курсора мыши на число - период времени, за который выпало указанное количество осадков.
R24 - Количество осадков - Количество выпавших осадков за 24 часа, мм.
S - Снежный покров - Высота снежного покрова, см. При наведении курсора мыши на число - состояние снежного покрова и степень покрытия местности в баллах.